Wind_Speed
15 17 18 20 21 22 23 23 23 23 22 22 24 25 27 30 32 36 37 40 43 41 36 34 28 22 22 24 23 25 26 28 38 52 58 60 59 57 54 49 49 42 49 45 43
15 17 19 22 24 26 27 27 26 26 25 25 24 26 26 28 33 34 38 41 44 41 37 32 26 21 19 17 17 20 22 26 31 37 53 57 55 60 58 48 54 53 37 42 43
16 17 19 20 23 26 29 30 31 30 29 28 28 28 29 29 31 34 40 42 44 39 38 31 24 20 19 14 11 16 16 23 30 36 43 53 57 63 58 56 53 58 43 38 46
16 17 17 18 21 24 27 31 33 34 34 33 32 32 31 32 32 35 39 41 44 39 36 32 25 22 17 13 12 12 13 17 28 36 35 47 63 63 64 61 34 49 51 47 43
16 18 17 18 19 21 25 29 32 35 36 35 36 36 37 35 34 35 37 40 42 40 37 31 25 23 18 14 12 10 11 12 21 33 33 42 58 61 67 61 53 47 47 51 46
16 18 20 22 21 21 23 27 30 34 36 37 37 37 37 37 36 37 37 38 40 42 36 34 25 24 21 16 13 10 10 11 15 23 34 40 51 64 63 59 52 48 51 55 52
16 19 21 24 23 22 23 25 28 32 34 35 37 37 38 39 39 38 37 37 38 39 39 34 28 24 23 18 19 16 10 8 11 17 27 40 48 60 58 59 44 19 46 61 55
19 20 20 23 25 25 24 24 26 30 33 32 34 36 38 39 40 41 42 41 38 40 39 33 32 24 21 23 14 12 8 5 10 15 24 38 42 52 61 57 61 28 13 64 59
20 20 21 22 24 25 25 25 25 28 32 32 33 35 38 41 42 43 42 40 42 37 35 34 31 29 21 20 19 7 10 7 8 13 24 38 32 51 62 62 71 48 29 39 57
21 21 23 22 22 23 24 25 26 27 31 31 33 34 37 39 41 42 42 41 41 38 36 35 37 32 29 23 19 15 14 12 5 6 16 35 28 38 53 64 65 59 44 25 52
22 23 23 24 23 24 24 24 24 26 31 32 33 35 36 39 39 40 41 43 42 43 40 36 36 34 30 27 23 19 13 11 11 2 9 22 33 23 36 45 59 37 26 41 38
25 25 24 25 24 23 26 26 26 28 30 31 31 32 34 35 37 39 41 40 41 41 39 37 34 34 31 26 25 21 16 11 8 3 7 17 23 24 31 46 41 55 22 36 57
26 26 27 27 25 26 26 28 27 28 31 31 31 32 32 35 36 36 38 39 39 39 41 38 37 34 32 31 26 21 19 13 8 5 2 12 18 17 23 32 36 48 25 19 47
26 27 28 29 27 25 27 29 28 29 31 30 32 33 33 34 35 36 37 40 40 37 36 37 36 34 33 29 27 26 19 16 12 7 3 5 14 20 17 20 28 29 29 24 21
32 27 29 30 29 29 27 30 29 30 34 32 33 34 37 35 34 35 35 34 36 37 36 35 33 31 31 30 29 25 24 19 14 10 8 2 7 14 19 20 19 20 24 27 24
35 30 29 29 31 34 30 27 29 31 34 33 32 34 36 35 34 34 33 34 31 31 36 34 34 30 31 30 26 23 21 19 16 12 6 4 3 8 17 21 23 21 19 24 29
39 43 28 32 33 35 33 32 31 29 33 34 36 34 38 36 35 35 35 35 34 32 32 35 34 32 28 27 27 24 18 17 18 18 13 8 1 5 8 12 21 25 19 23 30
34 48 32 31 32 36 35 32 34 29 33 35 37 34 36 35 34 34 34 35 34 33 34 33 34 34 33 29 27 27 27 24 21 18 14 12 6 2 8 12 16 20 27 21 23
34 32 34 33 34 34 38 32 31 30 33 35 36 37 35 35 37 38 35 33 33 31 32 31 30 28 30 28 27 25 26 20 15 14 14 15 13 7 4 9 16 20 23 28 24
32 28 31 34 38 32 36 32 32 34 36 38 39 36 37 38 36 37 38 33 32 32 31 30 27 26 24 25 22 25 22 19 17 16 12 11 12 10 8 5 10 18 25 29 31
28 28 33 35 35 36 36 37 33 33 36 37 39 39 38 42 35 35 35 32 33 32 29 30 25 22 23 24 22 20 22 21 19 18 15 12 12 12 13 10 5 6 13 21 28
25 26 26 27 30 33 33 33 35 34 36 37 39 42 40 39 36 36 34 33 33 32 30 29 28 23 20 18 19 19 21 22 21 15 17 17 12 13 13 13 10 8 8 11 17
26 25 28 28 30 30 30 31 35 36 38 38 41 40 40 40 39 35 35 32 30 32 32 27 27 25 21 19 17 18 20 19 19 18 19 14 14 19 19 17 19 17 17 17 17
26 23 21 24 30 31 29 31 34 36 37 38 39 40 41 39 39 38 36 36 31 31 28 29 23 24 24 22 19 18 19 25 25 22 20 21 13 22 19 17 18 20 23 22 20
26 28 29 31 31 32 31 32 36 37 37 39 36 37 40 40 40 38 35 33 29 25 23 27 24 22 15 22 16 17 20 23 26 29 34 21 20 28 24 23 20 23 23 22 24
32 36 37 39 37 36 37 39 41 40 39 37 35 36 38 36 35 33 31 30 30 27 28 23 22 25 11 20 21 16 21 20 30 28 33 36 29 32 36 31 27 29 30 27 26
34 40 44 37 38 36 35 36 39 39 39 36 33 31 30 32 33 32 31 29 29 30 26 22 26 26 23 29 32 30 34 31 26 29 35 38 39 38 34 36 36 37 36 35 32
Wind_Direction
20 20 22 18 14 13 10 4 1 354 348 343 343 343 346 349 351 353 352 355 359 352 339 331 326 313 299 279 275 267 255 235 228 221 218 221 212 204 209 214 214 229 217 218 222
27 23 20 17 18 18 14 12 8 4 0 355 349 348 349 349 357 354 355 0 3 357 346 341 333 324 314 291 280 268 254 228 219 221 219 217 216 204 207 213 216 221 211 216 222
12 12 13 16 15 16 15 14 11 11 10 7 1 358 355 355 352 355 1 4 6 0 354 348 342 337 334 314 292 275 257 236 219 222 219 215 212 206 204 208 218 220 220 218 221
5 1 2 4 9 10 11 11 11 10 10 10 8 6 2 3 354 359 4 6 8 6 359 353 352 351 348 330 312 294 271 247 224 226 221 213 213 204 209 204 210 205 212 213 213
352 354 355 353 356 3 4 7 8 9 9 10 9 8 10 5 0 2 5 8 10 8 6 2 1 359 351 338 327 318 287 265 232 228 224 210 214 205 206 214 220 223 217 216 220
341 346 351 349 349 353 358 360 3 4 7 6 7 8 8 4 6 9 7 9 12 12 9 9 7 9 3 353 342 318 292 265 239 234 220 213 214 208 204 210 219 227 231 220 218
341 345 347 348 348 346 350 354 357 2 4 4 7 7 10 8 10 12 11 12 13 14 14 10 14 15 12 359 0 344 315 261 250 232 214 214 211 207 204 203 200 204 229 216 216
335 335 341 345 348 347 346 351 355 359 2 1 5 5 6 9 14 12 12 13 13 15 15 12 19 19 14 10 356 5 329 268 248 229 201 210 210 209 201 199 205 200 167 207 214
326 330 332 340 345 346 347 348 351 358 1 359 360 4 6 8 13 14 13 13 18 15 15 16 18 27 18 13 16 341 14 309 233 231 205 207 208 209 209 205 211 207 233 196 209
317 320 326 332 339 342 343 347 349 351 357 357 358 1 8 9 9 10 9 13 16 15 19 15 19 23 22 18 12 8 354 2 350 226 220 206 202 212 210 215 219 229 219 192 205
310 313 318 324 332 335 339 343 344 343 349 352 357 0 3 4 5 6 8 12 12 12 19 18 20 24 22 20 23 17 11 1 1 277 214 204 214 217 211 215 220 221 255 228 212
307 307 311 315 321 329 333 333 337 341 344 346 351 356 0 1 3 3 6 7 9 11 19 18 21 21 22 24 27 24 23 25 13 351 202 184 211 232 217 211 215 221 192 222 223
298 303 307 307 313 319 323 324 331 337 335 340 344 348 354 357 359 359 1 4 7 6 15 16 21 22 17 20 26 25 27 29 29 28 316 176 191 212 231 228 230 216 225 213 204
291 297 301 303 304 312 319 318 323 328 330 331 338 343 345 350 354 355 357 360 1 2 6 12 14 21 21 15 18 23 26 29 33 55 71 189 180 183 219 244 233 245 261 251 239
296 286 294 300 299 302 306 312 317 317 325 329 331 335 339 344 347 348 351 355 357 358 3 2 4 10 19 22 18 13 23 28 24 36 74 96 193 172 208 242 247 264 267 253 266
294 285 287 292 292 298 299 302 310 314 318 323 325 327 332 334 337 340 343 348 354 355 358 359 1 5 11 18 21 26 21 23 29 39 40 89 220 215 201 226 249 259 255 253 261
300 286 280 282 290 291 295 292 302 308 310 316 322 321 324 333 333 334 339 342 345 355 359 359 2 5 7 7 15 19 19 28 28 38 44 27 81 244 229 221 237 252 258 261 270
302 309 285 278 286 289 291 296 305 307 305 308 318 318 319 327 330 331 332 334 340 345 354 358 0 358 358 359 3 7 13 18 23 24 25 21 24 289 254 233 233 239 251 250 251
306 306 300 282 287 280 288 293 303 302 301 303 311 319 321 323 328 331 327 328 330 339 342 348 356 354 350 355 356 356 1 12 17 15 12 12 15 46 319 264 247 240 241 245 249
301 306 299 302 301 282 284 285 291 297 301 302 307 314 316 322 321 325 327 323 325 331 335 337 348 345 346 347 356 349 349 2 5 15 30 357 1 2 19 352 281 260 250 247 247
291 300 299 298 306 298 289 283 285 292 295 298 300 307 311 315 318 319 321 317 321 325 329 330 339 341 338 339 345 351 352 356 4 2 359 14 337 344 338 335 336 308 273 265 261
291 305 311 312 306 304 298 288 282 288 290 294 296 303 307 309 311 316 318 312 312 319 321 323 329 330 334 332 333 346 351 348 351 357 343 358 337 326 326 325 318 308 288 277 261
287 295 311 311 304 299 297 292 283 288 291 291 296 300 303 308 305 310 310 309 308 311 311 318 319 321 325 328 332 339 337 325 339 350 339 346 340 321 306 309 302 297 286 280 273
286 292 306 312 317 305 300 296 291 293 296 297 298 299 301 302 300 306 307 306 307 305 306 306 310 312 314 317 331 340 324 316 327 324 336 320 340 299 312 317 298 294 295 291 276
288 285 292 302 310 312 302 300 297 295 296 297 294 294 296 300 301 301 298 300 304 299 297 299 303 300 300 300 317 327 323 313 317 312 317 312 312 303 307 302 297 298 299 292 286
295 292 292 299 298 296 295 296 296 301 301 297 289 293 294 295 298 300 296 301 303 303 303 300 299 295 315 295 307 310 305 299 302 296 298 296 298 298 297 292 295 293 290 288 290
298 295 296 300 300 297 298 296 296 293 292 292 292 295 293 295 296 298 300 300 298 300 300 316 308 305 314 306 305 307 312 305 297 289 289 293 294 291 286 291 292 292 290 289 288
Height
5832 5830 5827 5825 5821 5818 5814 5811 5807 5803 5799 5794 5790 5785 5779 5774 5768 5760 5754 5745 5734 5723 5714 5705 5698 5692 5689 5685 5683 5682 5684 5689 5693 5703 5715 5719 5733 5744 5755 5762 5771 5775 5786 5795 5798
5832 5830 5828 5825 5822 5818 5814 5810 5806 5802 5797 5792 5787 5782 5777 5771 5764 5758 5750 5740 5729 5719 5709 5700 5692 5687 5683 5680 5678 5677 5677 5680 5686 5692 5695 5708 5722 5736 5745 5756 5764 5749 5777 5786 5792
5834 5831 5828 5825 5822 5818 5814 5809 5805 5801 5796 5791 5785 5779 5774 5768 5762 5755 5745 5735 5726 5716 5706 5697 5689 5685 5680 5677 5675 5674 5675 5677 5682 5682 5691 5702 5711 5727 5737 5746 5755 5758 5771 5778 5784
5833 5831 5828 5825 5822 5818 5814 5809 5805 5800 5795 5789 5784 5778 5772 5765 5761 5751 5742 5734 5724 5713 5706 5696 5688 5683 5679 5676 5673 5672 5672 5673 5677 5679 5686 5697 5706 5719 5732 5739 5740 5754 5762 5769 5776
5833 5831 5828 5825 5821 5817 5814 5809 5804 5799 5793 5788 5782 5777 5770 5764 5757 5749 5741 5732 5724 5714 5706 5697 5689 5683 5678 5674 5672 5670 5670 5671 5672 5676 5683 5689 5698 5711 5724 5733 5743 5752 5758 5765 5770
5832 5830 5827 5824 5821 5817 5813 5809 5804 5799 5793 5788 5782 5776 5769 5764 5756 5747 5740 5732 5724 5715 5705 5698 5690 5684 5678 5674 5671 5668 5667 5667 5669 5673 5679 5686 5693 5706 5719 5733 5744 5750 5752 5760 5765
5832 5829 5827 5824 5820 5816 5812 5808 5804 5799 5794 5788 5782 5776 5770 5764 5754 5747 5741 5732 5725 5717 5706 5699 5691 5685 5679 5675 5672 5667 5665 5664 5666 5670 5676 5680 5690 5702 5713 5727 5737 5729 5735 5749 5757
5831 5828 5825 5822 5819 5815 5812 5808 5803 5799 5794 5789 5783 5777 5770 5764 5755 5747 5739 5732 5725 5715 5708 5701 5693 5686 5681 5676 5672 5669 5666 5664 5664 5666 5672 5676 5687 5693 5706 5717 5728 5723 5719 5733 5749
5829 5826 5824 5821 5817 5814 5810 5806 5803 5798 5793 5788 5784 5777 5770 5762 5755 5748 5741 5736 5725 5719 5712 5704 5696 5689 5684 5678 5674 5671 5666 5665 5665 5665 5668 5672 5683 5690 5699 5706 5708 5710 5712 5728 5740
5827 5825 5822 5819 5816 5812 5809 5805 5801 5797 5793 5788 5782 5779 5771 5763 5756 5750 5745 5735 5730 5723 5714 5706 5698 5689 5683 5679 5675 5671 5667 5666 5665 5666 5668 5674 5683 5688 5695 5701 5705 5710 5717 5723 5737
5824 5822 5819 5817 5814 5811 5808 5804 5802 5798 5792 5787 5781 5775 5770 5763 5759 5753 5746 5737 5730 5722 5714 5707 5699 5694 5686 5681 5676 5673 5670 5669 5667 5667 5668 5673 5679 5685 5691 5696 5704 5717 5718 5726 5726
5821 5819 5816 5814 5811 5808 5806 5802 5799 5795 5791 5786 5780 5776 5770 5766 5759 5752 5747 5741 5733 5725 5718 5712 5703 5696 5691 5686 5680 5677 5673 5670 5669 5668 5670 5672 5679 5685 5689 5697 5705 5709 5710 5720 5725
5817 5815 5813 5810 5807 5804 5802 5799 5796 5792 5789 5784 5780 5775 5770 5765 5759 5754 5748 5741 5734 5727 5720 5713 5706 5700 5695 5689 5684 5680 5677 5673 5672 5672 5674 5675 5679 5684 5689 5693 5700 5703 5704 5709 5719
5812 5811 5809 5807 5805 5801 5798 5796 5792 5788 5786 5783 5778 5773 5769 5764 5759 5753 5746 5741 5733 5729 5723 5717 5710 5704 5698 5693 5687 5682 5679 5676 5674 5674 5675 5678 5680 5681 5686 5691 5698 5702 5705 5708 5713
5805 5805 5803 5801 5800 5797 5795 5792 5788 5785 5782 5779 5774 5770 5765 5761 5757 5753 5747 5742 5737 5730 5725 5720 5714 5707 5701 5696 5690 5686 5681 5678 5677 5675 5677 5678 5681 5683 5687 5693 5697 5704 5706 5707 5713
5799 5797 5797 5796 5794 5792 5789 5786 5785 5783 5779 5775 5771 5767 5764 5760 5755 5751 5747 5741 5738 5732 5725 5719 5713 5708 5702 5698 5695 5691 5686 5682 5680 5678 5678 5679 5681 5684 5688 5691 5695 5700 5702 5704 5708
5793 5789 5789 5789 5789 5786 5784 5781 5779 5777 5775 5771 5767 5763 5759 5757 5752 5747 5742 5738 5733 5730 5725 5719 5712 5708 5704 5701 5696 5692 5691 5686 5684 5680 5679 5679 5681 5682 5686 5688 5691 5694 5697 5698 5701
5785 5782 5780 5781 5780 5780 5778 5777 5773 5771 5768 5765 5762 5759 5755 5752 5750 5746 5741 5735 5730 5726 5722 5717 5712 5707 5702 5699 5695 5693 5689 5685 5683 5682 5681 5680 5680 5681 5682 5685 5688 5690 5692 5694 5699
5779 5777 5774 5773 5771 5773 5772 5771 5767 5765 5763 5760 5758 5753 5751 5747 5744 5740 5736 5732 5727 5724 5721 5716 5714 5709 5703 5699 5697 5693 5691 5689 5687 5685 5683 5681 5680 5680 5680 5681 5684 5688 5688 5691 5691
5774 5771 5768 5766 5765 5764 5765 5764 5761 5759 5756 5753 5750 5748 5744 5742 5738 5734 5730 5727 5723 5720 5717 5713 5712 5707 5703 5699 5697 5693 5692 5690 5687 5685 5684 5682 5680 5680 5679 5679 5679 5680 5683 5686 5688
5766 5763 5762 5759 5759 5758 5757 5757 5755 5753 5750 5748 5745 5741 5738 5734 5733 5730 5728 5724 5720 5716 5713 5709 5709 5708 5701 5696 5693 5692 5687 5686 5685 5683 5682 5682 5680 5679 5678 5677 5678 5677 5677 5678 5680
5759 5759 5757 5754 5754 5750 5750 5749 5749 5747 5744 5741 5739 5736 5732 5729 5726 5724 5722 5718 5714 5710 5708 5705 5703 5700 5700 5696 5692 5690 5686 5683 5682 5684 5680 5678 5678 5675 5675 5675 5674 5673 5673 5672 5672
5752 5752 5750 5747 5746 5744 5742 5742 5740 5739 5737 5734 5731 5729 5725 5723 5718 5716 5714 5712 5710 5706 5700 5701 5697 5694 5693 5694 5690 5687 5684 5681 5681 5681 5678 5677 5676 5671 5670 5670 5669 5669 5668 5667 5667
5746 5745 5743 5740 5739 5737 5735 5735 5733 5730 5729 5725 5723 5721 5718 5716 5712 5709 5706 5703 5703 5700 5697 5692 5694 5693 5688 5685 5685 5684 5681 5677 5676 5675 5677 5672 5673 5665 5665 5664 5662 5661 5659 5658 5658
5739 5739 5736 5736 5733 5731 5729 5727 5724 5721 5720 5717 5715 5712 5708 5707 5704 5701 5697 5696 5695 5692 5692 5687 5687 5685 5685 5680 5682 5680 5678 5675 5673 5670 5666 5669 5665 5659 5660 5657 5656 5653 5652 5650 5648
5734 5734 5730 5729 5725 5720 5718 5718 5715 5713 5710 5708 5706 5703 5700 5697 5694 5691 5691 5689 5686 5684 5682 5682 5679 5677 5683 5676 5675 5677 5673 5671 5668 5666 5661 5657 5658 5655 5650 5650 5649 5647 5644 5643 5641
5726 5727 5724 5720 5716 5712 5709 5707 5706 5704 5702 5699 5696 5694 5693 5690 5686 5683 5682 5682 5678 5677 5675 5674 5671 5670 5674 5670 5667 5669 5664 5661 5662 5659 5652 5650 5648 5645 5643 5640 5639 5636 5634 5633 5632